Track STARLINK-3726 now! 10-day predictions STARLINK-3726 is classified as:
1 52122U 22029AL 22186.58334491 -.00067028 00000-0 -42289-2 0 9995 2 52122 53.2160 348.5418 0001570 63.2738 357.9573 15.08874262 1302